STARLINK-11133, 59954

Orbit data source: Space-Track

STARLINK-11133, 59954 is a payload satellite owned by SpaceX/Seattle (US) in LEO that was launched on Wed, 05 Jun 2024 UTC via an FALCON 9 launch vehicle from the Air Force Eastern Test Range (AFETR). Payload-class satellites include a variety of spacecraft equipped with specific instruments for various scientific and technological missions. These include communications satellites like Starlink; space stations such as the ISS; scientific satellites like the Hubble; Earth observation satellites from companies like Planet Labs, Umbra, and HawkEye 360; GPS; miniature CubeSats for education and research; and military/defense satellites.

Loading next visibility...
Identifier
59954, 2024-107K
Orbit
LEO
Last TLE update
9 hours ago
Origin
Manufacturer
SpaceX/Seattle
Mission
Operational spacecraft
Bus & Motor
STARLINK V2M, Unknown motor
Mass
730 kg wet, ~700 kg dry
Launch date (UTC)
2024-06-05 (1 year ago)
Launch vehicle
FALCON 9
Launch site
Air Force Eastern Test Range (AFETR)
Object type
Payload
Rocket body
Debris
Shape & HBR
Unknown
Radar Cross Section
Large (>1 m²)

Expand to show TLE details & history

TLE from 9 hours ago
0 STARLINK-11133
1 59954U 24107K   25182.04147035  .00001553  00000-0  17662-4 0  9998
2 59954  53.1603  51.6614 0000653  96.6399 263.4693 15.69721978 62636
Epoch: 2025-07-01T00:59Z
TLE epoch observation values (Epoch: 2025-07-01T00:59:43.038Z)
Latitude
-0.00003°
Longitude
117.38943°
Altitude
360.658 km
Speed
7.694 km/s
True Right ascension
03h 26m 38s
True Declination
0° 00' 00"
Sunlit
Object was in daylight at epoch
Visualization orbit readout
Latitude
26.36712°
Longitude
137.14737°
Altitude
360.661 km
Speed
7.697 km/s
Apparent Right ascension
07h 01m 57s
Apparent Declination
-7° 18' 08"
Sunlit
Object is in daylight
Visualization observer readout
Local Sidereal Time
21:56:46
Azimuth
62.115° ENE
Elevation
-39.164°
Doppler factor
1
Orbital elements
Apogee altitude
360.393 km
Perigee altitude
359.513 km
Semi-major axis
6,738.09 km
Eccentricity
0.00007
Inclination
53.1603°
RAAN
51.6614°
Arg. of periapsis
96.6399°
True anomaly
Unknown
Mean anomaly
263.4693°
Eccentric anomaly
Unknown
Mean motion
3.92408 °/min
Orbital period
91.74 mins
BSTAR
0.000017662
Loading maneuver chart data...
Loading SW <> Apogee altitude chart data...
Loading historical data...
Loading historical data...
Loading historical data...
Loading historical data...
Loading historical data...
Loading historical data...
Loading historical data...

STARLINK-11133 Visibility forecast

Observer location: undefined°, undefined°

Span
Click to sort rows by Start time (UTC) header in descending order
Start Az.
Max El. time (UTC)
Max El. Az.
Max El.
End time (UTC)
End Az.
5 mins2025-07-01 17:59:20.766Z222.965° SW2025-07-01 18:01:20.766Z181.098° SSW43.46°2025-07-01 18:04:20.766Z52.964° ENE
4 mins2025-07-02 00:24:20.766Z328.031° NNW2025-07-02 00:26:20.766Z44.443° NE35.342°2025-07-02 00:28:20.766Z106.431° ESE
|